FW5881 Weather Reports


time (UTC)temp
C
wind
direction
speed
KPH
gust
KPH
rain 1hr
cm
rain 24hr
cm
rain mn
cm
humidity
%
barometer
mb
20211025044426 11 151 27.4 46.7 0.00 0.18 0.18 56 1007.6
20211025043423 11 168 27.4 48.3 0.00 0.18 0.18 57 1007.8
20211025042418 11 137 27.4 53.1 0.00 0.18 0.18 57 1007.8
20211025041406 11 137 25.7 43.5 0.00 0.18 0.18 57 1008.1
20211025040415 11 147 19.3 40.2 0.00 0.18 0.18 57 1008.5
20211025035418 11 167 16.1 27.4 0.00 0.18 0.18 58 1008.2
20211025034412 11 216 16.1 32.2 0.00 0.18 0.18 59 1008.1
20211025033415 10 168 17.7 35.4 0.00 0.18 0.18 59 1007.9
20211025032411 11 193 17.7 40.2 0.00 0.18 0.18 59 1007.9
20211025031353 11 190 16.1 37.0 0.00 0.18 0.18 59 1007.8
20211025030407 10 156 14.5 35.4 0.00 0.18 0.18 59 1007.9
20211025025405 11 159 20.9 33.8 0.00 0.18 0.18 58 1008.0
20211025024404 11 139 17.7 41.8 0.00 0.18 0.18 59 1008.1
20211025023404 10 175 17.7 40.2 0.00 0.18 0.18 59 1007.9
20211025022406 11 170 12.9 37.0 0.00 0.18 0.18 59 1008.1
20211025021402 10 194 11.3 29.0 0.00 0.18 0.18 60 1008.0
20211025020408 10 180 19.3 37.0 0.00 0.18 0.18 60 1007.9
20211025015401 10 168 19.3 40.2 0.00 0.18 0.18 60 1008.0
20211025014403 10 143 19.3 37.0 0.00 0.18 0.18 61 1007.6
20211025013402 10 143 14.5 29.0 0.00 0.18 0.18 64 1007.4
20211025012404 9 199 11.3 25.7 0.00 0.18 0.18 66 1007.1
20211025011356 9 175 11.3 22.5 0.00 0.18 0.18 67 1007.6
20211025010401 10 193 12.9 22.5 0.00 0.18 0.18 64 1008.5
20211025005356 10 168 9.7 33.8 0.00 0.18 0.18 66 1008.1
20211025004350 10 224 12.9 27.4 0.00 0.18 0.18 67 1007.9
20211025003401 10 233 16.1 32.2 0.00 0.18 0.18 66 1007.8
20211025002354 9 136 11.3 33.8 0.00 0.18 0.18 67 1007.4
20211025001348 9 245 14.5 25.7 0.00 0.18 0.18 69 1008.0
20211025000400 9 175 14.5 24.1 0.00 0.18 0.18 68 1008.1
20211024235359 9 151 16.1 29.0 0.00 0.18 0.18 68 1008.6
20211024234346 9 199 19.3 40.2 0.00 0.18 0.18 70 1008.2
20211024233355 9 157 17.7 35.4 0.00 0.20 0.18 68 1008.7
20211024232353 10 170 20.9 38.6 0.00 0.20 0.18 64 1009.0
20211024231350 10 180 22.5 37.0 0.00 0.20 0.18 66 1008.7
20211024230347 9 149 16.1 29.0 0.00 0.20 0.18 70 1008.4
20211024225346 9 155 17.7 30.6 0.00 0.20 0.18 70 1008.4
20211024224347 8 146 17.7 33.8 0.00 0.20 0.18 71 1008.4
20211024223339 8 197 20.9 33.8 0.00 0.20 0.18 72 1008.4
20211024222348 8 185 20.9 35.4 0.03 0.20 0.18 71 1008.1
20211024221345 8 200 20.9 33.8 0.03 0.20 0.18 71 1008.2
20211024220342 8 157 19.3 35.4 0.03 0.20 0.18 73 1008.4
20211024215337 8 216 16.1 27.4 0.03 0.20 0.18 77 1007.8
20211024214337 8 185 19.3 38.6 0.03 0.20 0.18 77 1007.9
20211024213340 8 175 19.3 35.4 0.03 0.20 0.18 76 1008.1
20211024212335 8 185 19.3 32.2 0.00 0.18 0.15 73 1008.6
20211024211340 9 190 24.1 38.6 0.00 0.18 0.15 67 1009.1
20211024210333 10 180 22.5 35.4 0.00 0.18 0.15 67 1009.1
20211024205328 10 180 27.4 45.1 0.00 0.18 0.15 64 1009.2
20211024204338 11 199 25.7 43.5 0.00 0.18 0.15 59 1010.1
20211024203332 11 216 17.7 37.0 0.00 0.18 0.15 56 1010.1
20211024202332 11 122 16.1 29.0 0.00 0.18 0.15 53 1009.9
20211024201323 11 212 17.7 33.8 0.00 0.18 0.15 55 1010.2
20211024200326 11 219 20.9 37.0 0.00 0.18 0.15 58 1010.2
20211024195325 11 203 22.5 37.0 0.00 0.18 0.15 56 1010.3
20211024194326 11 227 20.9 35.4 0.00 0.18 0.15 57 1010.5
20211024193322 11 166 25.7 37.0 0.00 0.18 0.15 57 1011.0
20211024192322 11 180 24.1 33.8 0.00 0.18 0.15 57 1011.3
20211024191321 11 231 16.1 33.8 0.00 0.18 0.15 54 1011.3
20211024190324 12 219 14.5 29.0 0.00 0.18 0.15 54 1011.8
20211024185320 11 239 14.5 20.9 0.00 0.18 0.15 57 1011.5
20211024184324 11 268 12.9 20.9 0.00 0.18 0.15 60 1011.5
20211024183311 11 238 16.1 25.7 0.00 0.18 0.15 60 1011.6
20211024182315 11 233 19.3 32.2 0.00 0.18 0.15 59 1011.8
20211024181312 10 222 22.5 32.2 0.00 0.18 0.15 61 1011.9
20211024180316 10 237 20.9 33.8 0.00 0.18 0.15 61 1012.1
20211024175307 10 235 16.1 27.4 0.00 0.18 0.15 61 1012.0
20211024174319 10 216 12.9 27.4 0.00 0.18 0.15 60 1012.1
20211024173307 10 202 11.3 25.7 0.00 0.18 0.15 62 1011.8
20211024172251 9 145 8.0 19.3 0.00 0.18 0.15 64 1010.7
20211024171255 7 229 6.4 9.7 0.00 0.18 0.15 74 1009.5
20211024170302 6 322 6.4 11.3 0.00 0.18 0.15 77 1009.0
20211024165236 6 291 3.2 8.0 0.00 0.18 0.15 79 1008.4
20211024164244 5 291 3.2 6.4 0.00 0.18 0.15 79 1008.2
20211024163236 5 330 1.6 4.8 0.00 0.18 0.15 81 1008.1
20211024162240 5 337 1.6 6.4 0.00 0.18 0.15 82 1007.9
20211024161252 4 324 4.8 6.4 0.00 0.18 0.15 85 1007.6
20211024160241 3 337 3.2 8.0 0.00 0.18 0.15 87 1007.3
20211024155229 3 349 1.6 4.8 0.00 0.18 0.15 88 1006.8
20211024154242 3 19 3.2 4.8 0.00 0.18 0.15 88 1006.7
20211024153221 2 35 0.0 4.8 0.00 0.18 0.15 89 1006.4
20211024152226 2 231 0.0 3.2 0.00 0.18 0.15 90 1006.4
20211024151222 2 180 1.6 4.8 0.00 0.18 0.15 91 1005.9
20211024150223 1 180 3.2 6.4 0.00 0.18 0.15 91 1005.6
20211024145218 1 180 1.6 4.8 0.00 0.18 0.15 90 1005.2
20211024144204 1 180 1.6 4.8 0.00 0.18 0.15 90 1005.1
20211024143202 1 180 1.6 4.8 0.00 0.18 0.15 89 1005.2
20211024142209 1 180 3.2 9.7 0.00 0.18 0.15 89 1005.0
20211024141207 1 113 3.2 6.4 0.00 0.18 0.15 90 1004.8
20211024140206 1 180 4.8 6.4 0.00 0.18 0.15 90 1004.4
20211024135202 1 157 1.6 4.8 0.00 0.18 0.15 90 1004.5
20211024134203 1 141 4.8 9.7 0.00 0.18 0.15 90 1004.5
20211024133203 1 132 3.2 6.4 0.00 0.18 0.15 90 1004.4
20211024132200 1 180 4.8 8.0 0.00 0.18 0.15 90 1004.4
20211024131201 1 145 3.2 4.8 0.00 0.18 0.15 90 1004.4
20211024130159 1 180 3.2 6.4 0.00 0.18 0.15 90 1004.5
20211024125153 1 180 6.4 17.7 0.00 0.18 0.15 90 1004.7
20211024124152 1 180 8.0 17.7 0.00 0.18 0.15 91 1004.6
20211024123150 1 180 3.2 16.1 0.00 0.18 0.15 91 1004.5
20211024122150 1 180 4.8 9.7 0.00 0.18 0.15 92 1004.5
20211024121145 0 180 3.2 11.3 0.00 0.18 0.15 93 1003.9
20211024120138 0 180 3.2 6.4 0.00 0.18 0.15 93 1003.5
20211024115139 0 180 1.6 4.8 0.00 0.18 0.15 92 1003.8
20211024114126 0 180 1.6 4.8 0.00 0.18 0.15 93 1003.5
20211024113127 0 180 3.2 6.4 0.00 0.18 0.15 92 1003.4
20211024112121 0 180 3.2 6.4 0.00 0.18 0.15 93 1003.3
20211024111120 0 180 1.6 4.8 0.00 0.18 0.15 92 1003.0
20211024110117 0 180 1.6 3.2 0.00 0.18 0.15 92 1003.0
20211024105119 0 180 1.6 4.8 0.00 0.18 0.15 93 1002.9
20211024104109 0 180 1.6 4.8 0.00 0.18 0.15 92 1002.7
20211024103109 0 180 1.6 4.8 0.00 0.18 0.15 92 1002.5
20211024102111 1 180 3.2 4.8 0.00 0.18 0.15 92 1002.5
20211024101108 1 180 1.6 3.2 0.00 0.18 0.15 93 1002.5
20211024100100 1 180 0.0 3.2 0.00 0.18 0.15 92 1002.7
20211024095100 1 180 0.0 0.0 0.00 0.18 0.15 93 1002.8
20211024094103 1 103 0.0 3.2 0.00 0.18 0.15 93 1002.9
20211024093103 1 104 0.0 1.6 0.00 0.18 0.15 93 1002.8
20211024092106 1 104 1.6 4.8 0.00 0.18 0.15 93 1002.8
20211024091104 1 103 1.6 4.8 0.00 0.18 0.15 93 1002.8
20211024090101 1 93 1.6 4.8 0.00 0.18 0.15 93 1003.1
20211024085106 1 338 3.2 8.0 0.00 0.18 0.15 92 1002.9
20211024084103 1 336 4.8 6.4 0.00 0.18 0.15 92 1003.0
20211024083058 1 242 3.2 4.8 0.00 0.18 0.15 92 1002.8
20211024082059 1 256 0.0 3.2 0.03 0.18 0.15 93 1002.8
20211024081054 1 353 0.0 3.2 0.05 0.18 0.15 92 1002.5
20211024080052 1 352 1.6 4.8 0.10 0.18 0.15 92 1002.4
20211024075056 1 39 3.2 4.8 0.13 0.18 0.15 92 1002.3
20211024074047 1 74 1.6 4.8 0.15 0.18 0.15 92 1002.3
20211024073052 1 112 3.2 6.4 0.15 0.18 0.15 92 1002.3
20211024072055 1 69 1.6 4.8 0.13 0.15 0.13 91 1002.2
20211024071051 1 2 1.6 3.2 0.10 0.13 0.10 91 1002.4
20211024070047 1 337 4.8 16.1 0.05 0.08 0.05 91 1002.7
20211024065045 1 338 6.4 16.1 0.03 0.05 0.03 91 1002.5
20211024064047 1 313 1.6 4.8 0.00 0.03 0.00 90 1002.3
20211024063045 1 166 1.6 4.8 0.00 0.03 0.00 90 1002.1
20211024062043 1 90 1.6 3.2 0.00 0.03 0.00 90 1002.1
20211024061041 1 71 1.6 4.8 0.00 0.03 0.00 89 1001.9
20211024060038 2 235 1.6 4.8 0.00 0.03 0.03 89 1001.9
20211024055044 1 237 3.2 8.0 0.00 0.03 0.03 89 1002.2
20211024054038 1 149 1.6 3.2 0.00 0.03 0.03 88 1001.9
20211024053042 1 105 1.6 3.2 0.00 0.03 0.03 88 1001.4
20211024052035 1 106 3.2 4.8 0.00 0.03 0.03 88 1001.2
20211024051030 1 180 0.0 4.8 0.00 0.03 0.03 88 1001.0
20211024050031 1 103 3.2 6.4 0.00 0.03 0.03 88 1001.0